Gabo Island, Victoria

10:09 PM AEDT on February 10, 2016 (GMT +1100)
Main Wharf, Mallacoota, Vic, Australia | | Change Station
CLOSE
Current Station
Personal Weather Station
Location: Mallacoota, VICTORIA
Elevation: 29 ft
Nearby Weather Stations

Elev 29 ft 37.55 °S, 149.76 °E | Updated 22 seconds ago

Overcast
Overcast
65.8 °F
Feels Like 65.8 °F
N
3.7
Wind Variable Wind from West
Gusts 4.0 mph

Today
High -- | Low -- °F
--% Chance of Precip.
Yesterday
High -- | Low -- °F
Precip. -- in
Pressure 29.98 in
Visibility 6.2 miles
Clouds Mostly Cloudy 2300 ft
Overcast 3400 ft
Dew Point 60 °F
Humidity 82%
Rainfall 0.00 in
Snow Depth Not available.
6:23 AM 8:04 PM
Waxing Crescent, 5% visible
METAR YMER 101100Z AUTO 00000KT 9999 // BKN023 OVC034 22/18 Q1015
Pressure 29.98 in
Visibility 6.2 miles
Clouds Mostly Cloudy 2300 ft
Overcast 3400 ft
Dew Point 60 °F
Humidity 82%
Rainfall 0.00 in
Snow Depth Not available.
6:23 AM 8:04 PM
Waxing Crescent, 5% visible
METAR YMER 101100Z AUTO 00000KT 9999 // BKN023 OVC034 22/18 Q1015

10-Day Weather Forecast

No radar image for this location.
×

Almanac

Astronomy

Feb. 10, 2016 Rise Set
Actual Time
Civil Twilight
Nautical Twilight
Astronomical Twilight
Moon
Length of Visible Light
Length of Day
Tomorrow will be .
, % of the Moon is Illuminated

Today's Extremes

Country Highs Country Lows

Community

WunderPhotos

Upload Photos

1,891,830 photos uploaded!

WunderBlog® & News

Nearby

Air Quality

  Air Quality AQ Index Pollutant
Not available.

Snow Depth

Station Depth Elevation

Earthquake Activity

City Distance Mag. Time & Date
Minimum magnitude displayed is 2.5.

Coastal Water Temperatures

Place Temperature

Stations

Nearby Weather Stations

Station Location Temp. Windchill Dew Point Humidity Wind Precip. Elev Updated Type